Location: Lowman
(44.0835°N, 115.6207°W)
Time: 07:21:43
(UTC+00:00)

Envisat - Pass Details

Date: 07 December 2022
Orbit: 763 x 765 km, 98.2° (Epoch: 07 February)

Event Time Altitude Azimuth Distance (km) Brightness Sun altitude
Rises 11:51:25 0° 14° (NNE) 3,244 6.4 -33.7°
Reaches altitude 10° 11:53:44 10° 17° (NNE) 2,313 5.6 -33.3°
Enters shadow 11:53:55 11° 17° (NNE) 2,241 5.5 -33.2°
